Temperature
17 16 16 15 15 14 14 13 13 13 12 12 12 12 12 11 11 11 11 11 11 11 11 11 11 11 11 11 11 11 11 12 12 12 12 13 13 13 13 14 14 14 14
17 16 16 15 15 14 14 13 13 13 12 12 12 12 11 11 11 11 11 11 11 10 10 10 10 10 10 10 10 10 11 11 11 11 12 12 12 13 13 13 13 14 14
17 17 16 15 15 14 14 14 13 13 13 12 12 12 11 11 11 11 11 11 10 10 10 10 10 10 10 10 10 10 10 10 11 11 11 12 12 12 13 13 13 13 13
18 17 16 16 15 15 14 14 13 13 13 12 12 12 11 11 11 11 10 10 10 10 10 10 10 10 10 10 10 10 10 10 10 10 11 11 12 12 12 13 13 13 13
18 17 17 16 16 15 15 14 14 13 13 12 12 11 11 11 11 11 11 10 10 10 10 10 10 10 10 10 10 10 10 10 10 10 10 11 11 12 12 12 13 13 13
18 18 17 16 16 16 15 15 14 13 13 12 12 12 11 11 11 11 10 10 10 10 10 10 10 10 10 10 10 10 10 10 10 9 9 10 10 11 11 11 12 12 12
18 18 17 17 16 16 15 15 14 14 13 13 12 12 11 11 10 10 10 10 10 10 10 10 9 9 10 10 10 9 9 9 9 9 9 10 10 10 10 11 11 11 11
18 18 17 17 16 16 15 15 14 14 13 13 12 12 12 11 11 10 10 10 10 10 10 10 10 10 10 10 9 9 9 9 9 9 9 10 10 10 10 10 10 10 11
18 18 18 17 16 16 16 15 15 14 14 13 13 12 12 11 11 10 10 10 10 10 10 10 9 9 10 9 9 9 9 9 9 9 9 9 9 9 9 9 9 9 10
19 18 18 17 16 16 16 16 15 15 14 14 13 12 12 11 11 10 10 10 9 10 10 10 10 10 10 9 9 9 9 9 9 8 9 9 9 9 9 9 9 9 9
19 18 17 17 17 16 16 16 15 15 14 13 13 13 12 12 11 11 10 10 10 9 9 9 9 9 10 9 9 9 9 9 8 8 8 8 9 9 9 9 9 9 9
18 18 17 17 16 16 15 15 15 15 14 13 13 13 12 12 12 11 11 10 10 9 9 9 9 9 9 9 9 9 8 8 8 8 8 8 8 9 9 9 9 10 10
17 17 17 16 16 16 15 15 14 14 13 13 13 12 12 12 12 11 11 10 10 9 9 9 9 9 9 8 8 8 8 8 8 8 7 8 8 8 9 9 10 10 10
17 16 16 16 15 15 15 14 14 13 13 13 13 12 12 12 12 11 11 10 10 9 9 9 9 8 8 8 8 8 8 8 8 7 7 8 8 8 9 9 9 10 10
16 15 15 15 14 14 14 14 14 13 13 13 13 12 12 12 11 11 10 10 9 9 8 8 8 8 8 8 8 8 8 8 8 8 8 8 8 8 8 9 9 9 9
14 14 14 14 14 14 14 14 14 14 14 13 13 12 12 12 11 11 10 10 9 9 9 8 8 8 8 8 8 8 8 8 8 8 8 8 8 8 8 9 9 9 9
13 13 13 13 14 14 14 14 14 14 13 13 13 12 12 12 11 11 10 10 9 9 9 8 8 8 8 8 8 8 9 9 9 8 8 8 8 8 8 9 9 9 9
12 12 12 13 13 13 13 14 14 14 13 13 13 12 12 12 11 11 10 9 9 9 9 9 8 8 8 8 8 9 9 9 9 9 9 9 8 8 8 8 9 9 9
11 11 12 12 12 13 13 13 13 13 13 13 13 12 12 11 11 10 10 9 9 9 8 8 8 8 8 9 9 9 9 9 9 9 9 9 8 8 8 8 9 9 9
11 11 11 12 12 12 13 13 13 13 13 12 12 12 11 11 10 10 10 10 9 9 9 9 9 9 9 9 9 9 9 9 9 9 8 8 8 8 8 8 8 8 9
10 10 10 11 11 12 12 12 12 12 12 12 11 11 11 10 10 10 10 9 9 9 9 9 9 9 9 9 9 8 8 8 8 8 8 8 8 8 8 8 8 8 9
9 9 9 10 10 10 11 11 11 11 11 11 11 11 10 10 10 10 9 9 9 9 9 8 8 8 8 8 8 8 8 8 8 8 8 8 8 8 8 8 8 8 8
8 9 9 9 9 9 10 10 10 10 10 10 10 10 10 10 9 9 9 9 8 8 8 8 8 8 8 8 8 8 8 8 8 8 8 8 8 8 8 8 8 8 8
8 8 8 8 8 8 8 8 9 9 9 9 9 9 9 9 8 8 8 8 8 8 8 8 8 8 7 7 8 8 8 8 8 8 8 8 8 8 8 8 8 8 9
7 7 7 7 7 7 7 7 7 7 8 8 8 8 8 8 7 7 7 7 7 7 7 7 7 7 7 7 7 7 7 7 8 8 8 8 8 8 8 8 8 8 9
6 5 5 5 5 5 6 6 6 6 7 7 7 7 7 7 7 7 7 7 7 7 7 7 7 7 7 7 7 7 7 7 7 7 7 8 8 8 8 8 8 8 8
Wind_Speed
6 6 5 4 4 5 6 7 7 7 7 6 7 7 7 7 7 7 7 8 8 8 8 8 8 7 6 6 6 6 6 6 7 7 6 5 5 6 4 7 8 10 11
8 7 7 6 6 6 7 7 6 7 7 7 7 7 8 8 7 7 8 8 8 8 8 8 8 8 8 6 6 7 7 7 7 8 7 7 8 7 7 7 6 9 9
9 8 8 7 7 7 7 6 6 6 6 6 7 7 7 7 7 7 8 8 8 8 8 8 8 8 8 7 7 7 7 8 6 7 8 6 6 6 6 7 7 6 7
8 8 8 7 7 6 6 6 6 6 6 7 7 7 7 7 8 8 8 8 8 8 8 8 9 9 9 8 8 8 8 7 7 8 8 7 6 7 6 6 6 5 6
7 7 7 7 7 7 6 6 6 6 8 7 7 7 7 8 9 7 6 8 6 7 7 8 10 11 11 9 9 7 6 6 6 7 7 7 6 5 5 5 5 5 5
8 7 7 6 6 6 6 6 7 7 7 6 7 7 8 10 4 2 3 6 7 8 9 9 10 11 13 15 16 14 11 9 8 7 8 8 8 7 6 6 5 4 4
9 8 7 7 7 7 7 6 5 6 6 7 7 7 8 9 9 8 9 7 9 9 9 9 12 13 10 8 10 14 15 17 16 11 10 10 10 8 7 7 7 7 6
10 10 9 8 7 7 6 6 6 5 6 6 7 8 8 10 11 11 11 9 10 10 11 11 11 11 13 10 8 9 9 10 12 13 12 13 12 9 7 7 7 8 7
12 11 10 9 8 7 6 6 5 5 6 7 8 9 9 9 11 12 12 8 9 11 12 12 12 11 13 12 9 9 9 9 12 15 15 15 15 14 9 6 7 7 8
12 11 10 9 8 7 7 6 6 6 7 8 9 9 9 9 10 12 13 9 10 10 10 11 14 14 14 12 9 9 9 9 9 10 9 11 12 13 15 11 9 9 8
9 9 9 9 9 8 7 7 6 7 8 9 9 9 9 11 12 14 16 10 10 10 9 8 6 7 10 12 11 9 10 7 7 8 9 9 9 9 10 11 11 11 10
7 8 8 9 9 9 9 8 8 8 9 10 10 11 10 11 13 14 18 18 14 10 9 8 5 3 5 9 9 10 11 8 8 9 10 9 9 8 9 10 11 12 10
6 7 7 8 8 8 8 9 8 8 10 10 9 9 8 7 8 15 17 18 18 12 10 11 9 9 8 9 14 15 11 9 9 10 11 10 8 8 8 7 8 10 11
6 6 7 7 9 9 8 9 9 9 10 9 8 7 6 5 4 4 5 8 11 11 11 12 14 16 14 14 12 11 10 11 11 11 9 9 7 7 7 7 7 7 7
7 7 9 10 10 9 10 10 11 10 10 9 7 6 6 7 2 2 1 4 4 2 4 6 9 9 9 9 10 10 10 10 12 11 10 9 8 8 7 7 6 6 7
7 8 9 10 10 10 10 11 17 18 18 18 16 13 9 9 9 9 8 8 6 4 4 9 11 11 11 10 9 9 9 10 10 10 10 9 9 8 8 7 7 7 7
9 10 10 11 11 10 9 9 9 11 17 18 17 17 17 15 13 11 10 8 8 6 6 10 11 11 10 9 9 8 9 9 9 9 10 10 9 8 8 7 7 7 8
12 13 13 11 12 12 11 10 9 8 7 7 12 19 20 19 18 17 12 6 8 8 10 11 11 11 10 9 9 8 8 7 7 8 9 9 9 8 8 8 7 8 8
14 13 12 12 12 12 11 10 9 9 7 6 6 8 15 17 16 15 9 8 11 11 10 10 10 10 9 8 8 8 8 7 8 7 8 9 8 8 9 8 8 10 10
12 16 15 14 13 12 11 10 9 7 7 6 6 6 4 5 7 9 9 10 11 11 10 9 8 8 7 7 7 7 7 8 8 8 8 8 8 9 10 10 9 8 9
14 15 18 16 14 12 11 9 8 6 6 6 6 4 3 5 8 8 7 8 9 9 8 8 7 7 7 7 6 7 8 8 8 8 8 8 8 9 9 8 8 9 8
14 14 14 14 13 11 10 9 8 6 5 6 5 4 5 6 7 7 7 5 5 5 6 6 6 6 6 6 6 6 7 8 7 7 7 7 7 8 8 9 9 8 8
14 15 14 12 11 11 10 9 7 6 6 6 5 5 4 5 5 5 6 6 5 5 5 5 6 6 6 5 6 6 7 7 6 7 7 7 7 7 8 9 10 10 10
15 15 14 12 11 11 10 9 7 6 6 6 6 5 5 4 5 6 6 6 5 5 5 5 5 7 9 7 5 5 5 5 6 7 9 8 8 7 7 8 9 10 10
14 13 12 11 11 10 9 9 8 7 6 6 6 5 5 5 5 6 5 5 5 5 6 6 5 6 9 10 9 6 5 5 5 6 6 6 8 8 7 8 7 8 9
13 12 10 9 10 10 9 9 8 8 7 7 6 5 5 5 6 6 6 5 6 6 7 7 7 8 10 9 8 7 5 5 5 6 6 6 7 7 7 7 8 8 9
Wind_Direction
203 213 236 237 241 239 237 244 250 255 264 268 267 265 266 265 261 255 254 260 265 266 267 266 261 262 267 277 285 287 286 283 283 286 288 293 285 276 261 249 260 250 247
199 203 210 219 231 244 253 253 254 255 256 261 263 266 265 267 266 266 267 269 267 268 267 266 266 266 256 258 265 274 279 281 280 282 284 282 277 274 261 248 252 256 246
194 196 205 213 224 231 242 252 257 259 261 264 267 270 271 271 271 270 266 265 265 267 267 266 264 262 262 258 261 267 274 280 285 285 285 277 273 271 270 262 253 254 249
192 197 204 210 223 233 241 248 252 257 262 263 264 265 269 272 270 268 267 264 263 265 267 267 266 262 259 256 258 256 262 270 275 277 277 276 269 266 260 259 259 250 245
194 203 206 207 216 225 235 243 251 256 265 267 270 272 273 273 271 273 273 270 273 278 278 274 269 264 259 252 257 258 269 275 280 282 281 283 277 276 274 272 266 263 249
197 209 211 210 218 229 238 242 246 248 254 259 264 270 272 275 267 207 259 289 289 284 280 277 276 269 258 242 238 242 245 253 261 269 279 284 293 307 317 316 307 297 284
196 207 210 207 216 224 240 248 254 263 267 265 265 267 267 270 259 235 232 255 268 268 269 272 275 275 281 262 243 240 243 245 242 248 261 268 278 288 308 314 309 302 288
200 204 208 209 217 218 225 239 249 255 261 266 268 270 268 267 258 237 228 241 261 263 261 261 261 265 271 271 269 259 249 247 241 238 241 250 257 263 269 279 288 289 279
205 205 206 207 211 215 223 231 239 248 256 260 263 260 261 261 251 231 221 246 258 262 260 259 256 255 254 249 249 255 259 261 261 253 235 236 241 246 247 263 273 276 277
207 202 200 198 203 211 219 225 234 242 251 258 259 257 259 263 254 232 214 240 258 264 263 258 255 252 249 234 232 244 254 260 270 280 271 255 250 249 239 233 242 253 262
204 200 196 193 196 208 216 219 226 239 250 255 259 260 258 256 253 238 215 228 250 264 270 274 276 269 240 227 227 242 252 264 278 279 276 267 254 246 240 229 223 228 240
206 205 199 196 209 218 213 218 223 235 249 255 255 257 254 247 241 234 216 218 234 252 264 273 283 287 241 232 230 242 250 256 263 265 264 262 258 251 242 234 223 219 222
223 218 210 208 210 219 222 226 228 232 244 254 257 259 257 247 228 218 216 219 226 236 256 266 274 258 247 244 242 241 243 245 250 253 256 256 254 255 252 246 237 226 223
236 234 229 227 230 228 228 235 239 242 245 248 253 261 269 268 253 207 205 222 230 238 253 264 262 253 244 249 254 242 235 239 241 247 251 255 254 255 254 248 247 230 225
255 248 248 246 245 241 234 234 237 242 245 249 257 264 275 279 251 131 253 269 277 300 297 275 271 266 255 244 241 240 234 230 234 240 249 255 255 252 250 247 243 238 227
284 272 267 262 254 247 242 242 231 231 237 229 227 235 249 248 242 239 237 236 238 235 260 265 266 265 264 261 253 243 237 236 235 235 238 244 248 249 248 239 234 232 231
303 292 283 278 275 267 257 253 256 241 234 233 231 232 235 245 250 250 249 254 249 212 239 256 258 260 261 261 259 252 246 240 231 231 235 237 239 244 245 242 233 231 229
314 299 288 279 275 273 269 264 263 263 258 243 231 230 234 238 244 248 247 252 257 230 239 248 253 256 256 257 259 257 254 250 237 231 234 235 233 236 240 239 233 232 230
310 300 294 289 284 279 274 270 266 263 260 256 258 234 225 233 241 246 226 234 251 257 253 248 249 255 259 261 260 254 252 251 242 234 235 236 233 232 236 236 233 233 232
305 299 299 297 289 281 274 270 266 260 260 261 260 266 233 210 232 235 218 227 241 252 258 263 263 260 259 259 258 256 253 251 248 241 238 236 231 229 232 233 231 230 229
316 315 311 305 297 293 290 283 276 270 269 268 270 273 245 247 255 257 250 235 241 252 260 267 270 271 267 263 258 255 254 254 250 246 243 239 233 229 228 230 230 230 229
319 314 313 312 312 311 308 303 297 288 285 287 291 280 236 252 273 280 280 277 267 262 269 275 276 275 271 270 266 263 262 259 255 250 248 246 237 231 229 227 226 227 226
318 314 314 316 317 316 311 304 302 303 301 296 296 293 280 275 284 291 297 300 300 294 287 279 279 281 284 281 276 270 267 264 259 254 249 247 242 233 227 226 225 222 221
318 318 320 321 320 317 315 313 317 321 315 309 303 300 307 310 309 308 308 308 305 304 304 300 292 288 292 293 287 281 280 279 277 266 255 249 247 241 229 228 228 224 223
323 326 327 327 325 321 320 320 322 318 314 313 315 319 319 320 316 311 312 314 317 317 314 311 306 307 309 308 302 298 296 289 281 281 268 256 252 249 239 231 229 228 222
331 330 331 331 330 328 328 325 321 321 324 325 330 330 327 325 320 319 320 322 325 322 317 312 313 315 314 313 317 323 306 291 284 277 271 260 251 247 238 231 231 228 225
Height
1524 1524 1525 1525 1524 1524 1523 1522 1522 1521 1520 1520 1519 1518 1517 1516 1515 1514 1513 1512 1512 1511 1511 1510 1510 1509 1509 1509 1508 1508 1508 1508 1506 1504 1504 1504 1503 1502 1501 1500 1498 1498 1496
1521 1521 1521 1521 1521 1520 1520 1519 1519 1518 1517 1516 1515 1514 1513 1512 1511 1510 1509 1508 1507 1507 1506 1505 1505 1504 1504 1504 1503 1503 1503 1503 1502 1500 1499 1499 1498 1497 1496 1495 1493 1492 1491
1517 1517 1517 1517 1517 1516 1516 1515 1515 1514 1513 1512 1511 1510 1509 1508 1507 1505 1504 1503 1502 1501 1501 1500 1499 1499 1499 1498 1498 1498 1497 1497 1497 1495 1494 1494 1493 1492 1491 1490 1489 1488 1487
1514 1514 1514 1514 1513 1513 1512 1511 1511 1510 1509 1507 1506 1505 1504 1503 1502 1501 1499 1498 1497 1496 1495 1495 1494 1494 1493 1493 1493 1492 1492 1492 1491 1490 1489 1488 1488 1487 1486 1485 1484 1483 1482
1510 1510 1510 1510 1509 1509 1508 1508 1507 1506 1505 1504 1502 1501 1500 1498 1497 1496 1494 1494 1492 1491 1490 1489 1488 1488 1488 1488 1488 1487 1487 1486 1486 1485 1484 1483 1483 1482 1482 1480 1479 1478 1477
1505 1506 1506 1506 1506 1505 1505 1504 1503 1501 1500 1499 1497 1496 1494 1493 1492 1490 1489 1488 1486 1485 1483 1482 1482 1482 1482 1481 1481 1481 1481 1481 1480 1479 1479 1478 1477 1477 1476 1475 1475 1473 1472
1500 1501 1501 1501 1501 1501 1500 1500 1499 1497 1496 1494 1492 1490 1488 1487 1486 1484 1483 1481 1479 1478 1477 1476 1476 1476 1477 1476 1475 1475 1474 1474 1474 1474 1472 1472 1472 1472 1472 1470 1470 1469 1468
1495 1495 1496 1496 1496 1496 1496 1495 1494 1492 1491 1489 1487 1485 1483 1481 1480 1478 1477 1475 1473 1472 1471 1470 1469 1469 1470 1470 1469 1468 1468 1467 1467 1467 1466 1465 1466 1466 1466 1466 1465 1464 1463
1489 1490 1490 1491 1491 1491 1490 1489 1488 1487 1485 1483 1481 1479 1477 1475 1474 1472 1471 1469 1467 1466 1465 1464 1464 1463 1463 1463 1463 1462 1461 1461 1461 1460 1460 1459 1459 1459 1459 1460 1459 1460 1458
1483 1484 1484 1485 1485 1485 1484 1483 1482 1481 1479 1477 1475 1473 1472 1470 1468 1467 1466 1464 1462 1461 1460 1459 1459 1458 1457 1457 1456 1456 1455 1454 1454 1453 1453 1452 1452 1452 1452 1452 1453 1453 1453
1479 1479 1479 1478 1478 1478 1478 1477 1476 1475 1473 1471 1469 1467 1466 1464 1462 1461 1460 1458 1457 1456 1455 1454 1453 1452 1451 1451 1450 1450 1449 1448 1447 1446 1445 1445 1444 1444 1444 1445 1445 1446 1447
1474 1474 1473 1473 1472 1472 1472 1471 1470 1469 1467 1465 1463 1461 1459 1458 1456 1455 1454 1453 1452 1450 1448 1447 1447 1446 1445 1444 1443 1443 1442 1442 1440 1439 1438 1437 1437 1438 1438 1438 1439 1439 1440
1469 1468 1467 1466 1465 1465 1464 1463 1462 1462 1460 1459 1458 1456 1454 1453 1451 1449 1448 1447 1445 1444 1442 1441 1440 1439 1438 1437 1436 1435 1435 1434 1432 1432 1431 1431 1431 1431 1432 1433 1433 1434 1434
1464 1463 1462 1461 1459 1458 1457 1457 1456 1455 1454 1453 1452 1450 1449 1447 1446 1443 1442 1440 1439 1438 1436 1434 1433 1432 1431 1429 1428 1427 1426 1426 1425 1425 1424 1425 1425 1425 1426 1426 1427 1428 1428
1458 1457 1457 1455 1453 1452 1450 1449 1448 1448 1447 1446 1445 1444 1442 1440 1440 1438 1436 1435 1433 1432 1429 1427 1426 1425 1423 1422 1420 1420 1419 1419 1418 1417 1418 1418 1419 1419 1419 1420 1421 1422 1423
1454 1453 1451 1450 1447 1445 1443 1441 1439 1439 1438 1437 1437 1436 1434 1433 1432 1430 1429 1428 1426 1424 1422 1420 1418 1417 1416 1415 1414 1413 1413 1412 1412 1412 1412 1412 1413 1413 1413 1414 1415 1416 1417
1450 1447 1445 1443 1441 1439 1436 1434 1432 1431 1430 1429 1428 1427 1426 1425 1424 1423 1422 1420 1419 1417 1414 1412 1411 1410 1408 1408 1407 1406 1406 1405 1405 1405 1405 1405 1406 1406 1407 1408 1409 1410 1411
1445 1442 1439 1436 1434 1431 1429 1427 1425 1423 1422 1420 1419 1418 1418 1417 1416 1415 1415 1413 1411 1409 1407 1405 1404 1403 1402 1401 1400 1399 1399 1398 1398 1398 1398 1399 1399 1400 1400 1401 1402 1403 1405
1440 1436 1433 1430 1427 1424 1421 1419 1417 1415 1414 1412 1412 1411 1410 1409 1409 1408 1407 1405 1403 1402 1401 1399 1398 1397 1396 1394 1393 1392 1392 1392 1392 1392 1392 1392 1392 1393 1393 1394 1396 1397 1398
1435 1431 1427 1423 1420 1417 1414 1411 1409 1407 1406 1405 1404 1404 1403 1402 1401 1400 1399 1397 1396 1395 1394 1393 1392 1390 1389 1387 1386 1386 1385 1385 1385 1385 1384 1385 1385 1385 1386 1387 1389 1390 1391
1430 1426 1422 1418 1414 1410 1407 1404 1402 1400 1399 1398 1398 1397 1397 1396 1395 1394 1393 1392 1390 1389 1387 1386 1385 1383 1382 1381 1380 1379 1378 1378 1378 1378 1378 1378 1378 1378 1379 1380 1382 1383 1385
1426 1421 1417 1413 1408 1404 1401 1398 1395 1394 1393 1392 1391 1391 1391 1390 1389 1389 1387 1386 1385 1383 1382 1380 1378 1377 1376 1374 1373 1372 1371 1371 1371 1371 1371 1371 1371 1372 1373 1374 1375 1377 1378
1421 1417 1412 1407 1403 1398 1395 1392 1390 1388 1387 1386 1386 1385 1385 1385 1384 1383 1382 1380 1379 1377 1376 1375 1373 1371 1369 1368 1367 1366 1365 1364 1364 1364 1364 1364 1365 1366 1367 1367 1369 1370 1372
1417 1412 1407 1402 1398 1394 1391 1388 1385 1384 1382 1381 1381 1380 1380 1380 1379 1378 1376 1375 1374 1372 1371 1369 1367 1365 1363 1362 1360 1359 1358 1357 1357 1357 1358 1358 1359 1360 1361 1362 1363 1364 1366
1412 1408 1403 1398 1394 1390 1387 1384 1381 1380 1378 1377 1377 1376 1376 1375 1374 1373 1372 1371 1369 1368 1366 1364 1362 1360 1358 1356 1354 1352 1351 1351 1351 1351 1351 1352 1353 1354 1355 1356 1357 1359 1361
1408 1403 1399 1395 1391 1387 1384 1381 1379 1377 1375 1374 1373 1373 1372 1371 1370 1369 1368 1366 1365 1363 1362 1360 1358 1355 1352 1350 1348 1346 1345 1344 1344 1344 1345 1346 1347 1348 1349 1351 1352 1354 1355